Bismarck, ND

10:39 PM CST on February 11, 2016 (GMT -0600)
Pacific Avenue Bismarck | | Change Station
CLOSE
Current Station
Personal Weather Station
Location: Bismarck, ND
Elevation: 1722 ft
Nearby Weather Stations

Elev 1722 ft 46.83 °N, 100.75 °W | Updated 13 seconds ago

Partly Cloudy
Partly Cloudy
13.5 °F
Feels Like 14 °F
N
2.7
Wind Variable Wind from ESE

Today
High -- | Low -- °F
--% Chance of Precip.
Yesterday
High -- | Low -- °F
Precip. -- in
Pressure 30.29 in
Visibility 10.0 miles
Clouds Few 1800 ft
Windchill 14 °F
Dew Point 11 °F
Humidity 90%
Rainfall 0.00 in
Snow Depth Not available.
7:54 AM 6:01 PM
Waxing Crescent, 17% visible
SPECI KBIS 120414Z 36004KT 10SM FEW018 M07/M11 A3029 RMK AO2 T10721111
Pressure 30.29 in
Visibility 10.0 miles
Clouds Few 1800 ft
Windchill 14 °F
Dew Point 11 °F
Humidity 90%
Rainfall 0.00 in
Snow Depth Not available.
7:54 AM 6:01 PM
Waxing Crescent, 17% visible
SPECI KBIS 120414Z 36004KT 10SM FEW018 M07/M11 A3029 RMK AO2 T10721111

10-Day Weather Forecast

Almanac

Astronomy

Feb. 11, 2016 Rise Set
Actual Time
Civil Twilight
Nautical Twilight
Astronomical Twilight
Moon
Length of Visible Light
Length of Day
Tomorrow will be .
, % of the Moon is Illuminated

Today's Extremes

State Highs State Lows

Community

WunderPhotos

Upload Photos

1,892,266 photos uploaded!

WunderBlog® & News

Nearby

Air Quality

  Air Quality AQ Index Pollutant
Not available.

Snow Depth

Station Depth Elevation

Earthquake Activity

City Distance Mag. Time & Date
Minimum magnitude displayed is 2.5.

Coastal Water Temperatures

Place Temperature

Stations

Nearby Weather Stations

Station Location Temp. Windchill Dew Point Humidity Wind Precip. Elev Updated Type
                   

Watches & Warnings

There are currently no watches in effect.